MAROC-TUBSAT

Last updated on Fri Oct 04 2024 00:02:24 GMT+0000 (Coordinated Universal Time)

1 27004U 01056D 24277.39662808 .00000050 00000+0 10872-3 0 9994 2 27004 99.7491 73.1646 0019139 297.3802 91.4383 13.70218135141033
UTC large
Height (km)
Speed (km/s)
/
Latitude / Longitude
Inclination (degrees)
Orbital Period (minutes)
Azimuth
Elevation
Range (km)
Doppler Factor

Next 0 passes for location: London (51.5072 / 0.1276)

Sorry there are no passes over London.